Location: ???????
(55.4362°N, 38.1183°E)
Time: 02:38:36
(UTC+00:00)

COSMOS 2428 - Visible Passes

Search period start: 23 October 2021 00:00
Search period end: 02 November 2021 00:00
Orbit: 847 x 856 km, 70.9° (Epoch: 22 October)

Date Brightness Start Highest point End Pass type
(mag) Time Alt. Az. Time Alt. Az. Time Alt. Az.
23 Oct 3.9 01:15:30 10° NNW 01:20:52 40° NE 01:26:15 10° ESE visible
23 Oct 2.8 02:59:50 10° NW 03:05:26 59° WSW 03:11:01 10° SSE visible
23 Oct 5.5 21:39:42 12° NNE 21:39:42 12° NNE 21:40:12 10° NNE visible
23 Oct 4.9 23:21:44 18° N 23:22:49 19° NNE 23:26:52 10° ENE visible
24 Oct 3.9 01:03:47 12° NNW 01:08:40 40° NE 01:14:03 10° ESE visible
24 Oct 2.8 02:47:37 10° NW 02:53:13 59° WSW 02:58:49 10° SSE visible
24 Oct 5.0 23:10:18 19° NNE 23:10:37 19° NNE 23:14:40 10° ENE visible
25 Oct 3.9 00:52:22 16° NNW 00:56:28 40° NE 01:01:50 10° ESE visible
25 Oct 2.8 02:35:25 10° NW 02:41:02 59° WSW 02:46:37 10° SSE visible
25 Oct 5.0 22:59:02 19° NNE 22:59:02 19° NNE 23:02:28 10° ENE visible
26 Oct 3.9 00:41:06 22° NNW 00:44:16 40° NE 00:49:39 10° ESE visible
26 Oct 2.7 02:23:13 10° NW 02:28:49 59° WSW 02:34:24 10° SSE visible
26 Oct 4.7 15:42:16 10° SE 15:42:20 10° SE 15:42:20 10° SE visible
26 Oct 4.6 17:23:17 10° SSW 17:24:28 17° SSW 17:24:28 17° SSW visible
26 Oct 5.2 22:47:57 17° NE 22:47:57 17° NE 22:50:16 10° ENE visible
27 Oct 3.9 00:30:01 30° N 00:32:04 40° NE 00:37:26 10° ESE visible
27 Oct 2.7 02:12:06 16° NW 02:16:37 58° WSW 02:22:12 10° SSE visible
27 Oct 4.3 15:30:03 10° SE 15:31:56 15° ESE 15:31:56 15° ESE visible
27 Oct 3.8 17:11:04 10° SSW 17:14:03 32° SSW 17:14:03 32° SSW visible
27 Oct 5.4 22:37:04 13° NE 22:37:04 13° NE 22:38:04 10° ENE visible
28 Oct 3.8 00:19:09 39° NNE 00:19:52 40° NE 00:25:14 10° ESE visible
28 Oct 2.7 02:01:15 26° NW 02:04:25 58° WSW 02:10:00 10° SSE visible
28 Oct 4.4 03:45:12 10° WNW 03:47:31 13° W 03:49:50 10° WSW visible
28 Oct 4.1 15:17:51 10° SE 15:21:13 16° E 15:21:22 16° E visible
28 Oct 2.9 16:58:52 10° SSW 17:03:27 57° S 17:03:27 57° S visible
28 Oct 5.0 18:44:06 10° WSW 18:45:33 17° W 18:45:33 17° W visible
29 Oct 3.9 00:08:30 38° ENE 00:08:30 38° ENE 00:13:02 10° ESE visible
29 Oct 2.7 01:50:37 43° WNW 01:52:13 58° WSW 01:57:48 10° SSE visible
29 Oct 4.4 03:32:59 10° WNW 03:35:19 13° W 03:37:38 10° WSW visible
29 Oct 4.1 15:05:38 10° SE 15:09:00 16° E 15:10:34 15° E visible
29 Oct 2.5 16:46:40 10° SSW 16:52:19 72° ESE 16:52:38 70° E visible
29 Oct 4.6 18:31:54 10° WSW 18:34:43 25° W 18:34:43 25° W visible
29 Oct 4.5 23:58:03 26° E 23:58:03 26° E 00:00:50 10° ESE visible
30 Oct 2.7 01:40:10 58° SW 01:40:10 58° SW 01:45:36 10° SSE visible
30 Oct 4.3 03:22:17 12° W 03:23:06 13° W 03:25:25 10° WSW visible
30 Oct 4.1 14:53:26 10° SE 14:56:47 16° E 14:59:33 12° ENE visible
30 Oct 2.6 16:34:27 10° SSW 16:40:06 72° ESE 16:41:36 49° NE visible
30 Oct 4.3 18:19:41 10° WSW 18:23:40 32° WNW 18:23:40 32° WNW visible
30 Oct 5.1 23:47:45 14° ESE 23:47:45 14° ESE 23:48:37 10° ESE visible
31 Oct 3.5 01:29:52 37° S 01:29:52 37° S 01:33:23 10° SSE visible
31 Oct 4.5 03:12:00 12° WSW 03:12:00 12° WSW 03:13:13 10° WSW visible
31 Oct 4.2 14:41:13 10° SE 14:44:35 16° E 14:47:57 10° ENE visible
31 Oct 2.6 16:22:15 10° SSW 16:27:54 72° ESE 16:30:22 35° NE visible
31 Oct 4.1 18:07:30 10° WSW 18:12:26 35° NW 18:12:26 35° NW visible
01 Nov 4.5 01:19:39 19° S 01:19:39 19° S 01:21:11 10° SSE visible
01 Nov 4.2 14:29:00 10° SE 14:32:22 16° E 14:35:45 10° ENE visible
01 Nov 2.6 16:10:03 10° SSW 16:15:41 72° ESE 16:18:58 26° NE visible
01 Nov 4.1 17:55:17 10° WSW 18:00:27 35° NW 18:01:00 34° NNW visible
01 Nov 5.5 19:42:36 10° NW 19:43:03 11° NW 19:43:03 11° NW visible
